{"data":{"norad_id":53432,"epoch":"2026-05-25T02:34:39.423072Z","epoch_age_seconds":59006,"freshness":"FRESH","line1":"1 53432U 22097AW  26145.10740073 -.00000340  00000+0 -32869-5 0  9998","line2":"2 53432  53.2135 120.8278 0001294  52.0087 308.1022 15.08842380210327","mean_motion":15.0884238,"eccentricity":0.0001294,"inclination_deg":53.2135,"raan_deg":120.8278,"arg_perigee_deg":52.0087,"mean_anomaly_deg":308.1022,"bstar":-3.2869e-6,"rev_number":21032,"period_min":95.437404137601,"perigee_km":538.84094148481,"apogee_km":540.63128704679,"semimajor_km":6917.8731142658,"source":"CELESTRAK","updated_at":"2026-05-25T13:38:17.406145Z"}}